Regional Weather Roundup
Issued by NWS

Home | Current Version | Previous Version | Graphics & Text | Print | Product List | Glossary Off
Versions: 1 2 3 4 5 6 7 8 9 10 11 12 13 14 15 16 17 18 19 20 21 22 23 24 25 26 27 28 29 30 31 32 33 34 35 36 37 38 39 40 41 42 43 44 45 46 47 48 49 50

000
ASUS43 KMPX 260810
RWRMN
WEATHER ROUNDUP FOR MINNESOTA
NATIONAL WEATHER SERVICE TWIN CITIES/CHANHASSEN MN
300 AM CDT SAT JUL 26 2014


NOTE: "FAIR" INDICATES FEW OR NO CLOUDS BELOW 12,000 FEET WITH NO
SIGNIFICANT WEATHER AND/OR OBSTRUCTIONS TO VISIBILITY. N/A MEANS
CURRENT SKY AND/OR WEATHER CONDITIONS ARE NOT AVAILABLE.

MNZ060>063-068>070-260900-
   Twin Cities Metro

CITY           SKY/WX    TMP DP  RH WIND       PRES   REMARKS
TWIN CITIES    CLOUDY    74  70  87 CALM      29.80S
ST PAUL        CLOUDY    73  70  90 CALM      29.80S
CRYSTAL        CLOUDY    76  69  79 W3        29.79R
BLAINE         CLOUDY    75  72  88 CALM      29.80S
LAKEVILLE      MOCLDY    68  66  94 CALM      29.80F FOG
EDEN PRAIRIE   CLOUDY    73  70  90 CALM      29.79S
SOUTH ST PAUL  CLOUDY    73  70  91 CALM      29.80S FOG
LAKE ELMO      CLOUDY    72  70  94 S6        29.81S
$$
MNZ001>005-007-008-013>017-022>024-027-028-260900-
   Northwest Minnesota

CITY           SKY/WX    TMP DP  RH WIND       PRES   REMARKS
BEMIDJI        CLEAR     60  55  84 SW5       29.79F
HALLOCK        CLEAR     59  54  82 CALM      29.74F
ROSEAU         CLEAR     61  54  77 SW5       29.75S
WARROAD        CLEAR     59  55  88 SW7       29.75S
THIEF RVR FALL CLEAR     57  54  88 SW3       29.78F
CROOKSTON      CLEAR     57  54  88 SW5       29.78F
FOSSTON        CLEAR     52  52 100 S5        29.80F
DETROIT LAKES  CLEAR     61  59  94 CALM      29.83S
MOORHEAD       CLEAR     59  57  94 E3        29.80F
PARK RAPIDS    CLEAR     58  56  93 CALM      29.80F
$$
MNZ006-009>011-018-025>026-260900-
   North Central Minnesota

CITY           SKY/WX    TMP DP  RH WIND       PRES   REMARKS
BAUDETTE       CLEAR     57  53  86 SW5       29.75S
FLAG ISLAND    CLEAR     64  54  68 W13       29.71R
INTL FALLS     CLEAR     59  57  93 SW6       29.74S
WASKISH        CLEAR     68  59  73 W9        29.76S
BIG FORK         N/A     61  57  88 CALM      29.78S VSB 3/4
LONGVILLE      CLEAR     59  57  94 CALM      29.79S
GRAND RAPIDS   CLEAR     66  61  82 W5        29.79R
CRANE LAKE     CLEAR     63  61  94 S3        29.75F
ORR            CLEAR     63  59  88 CALM      29.74S
COOK           PTCLDY    64  63  94 CALM      29.77S
$$
MNZ012-019>021-037-260900-
   Northeast Minnesota

CITY           SKY/WX    TMP DP  RH WIND       PRES   REMARKS
DULUTH         MOCLDY    70  67  90 W10       29.77S
ELY            PTCLDY    66  64  94 W5        29.76R
HIBBING        FOG       60  59  96 CALM      29.77S VSB 1/4
EVELETH        PTCLDY    64  64 100 W3        29.78S
DULUTH HARBOR  MOCLDY    70  66  88 SW13      29.75S
TWO HARBORS    CLOUDY    66  63  88 SW3       29.74S
SILVER BAY     CLEAR     66  66 100 CALM      29.73F
GRAND MARAIS     N/A     56  54  93 CALM      29.74S
G MARAIS ARPRT CLOUDY    64  61  88 CALM      29.77F FOG
$$
MNZ029>031-032-039>041-046>048-054>057-064-260900-
   West Central Minnesota

CITY           SKY/WX    TMP DP  RH WIND       PRES   REMARKS
FERGUS FALLS   CLEAR     61  55  82 CALM      29.82S
WHEATON        CLEAR     61  59  94 S1        29.83F
MORRIS         CLEAR     63  61  94 CALM      29.81F
ALEXANDRIA     CLEAR     63  61  93 CALM      29.83F FOG
ELBOW LAKE     FAIR      63  61  96 CALM      29.82F
WADENA         CLEAR     55  55 100 CALM      29.82S
GLENWOOD       CLEAR     64  64 100 CALM      29.84F FOG
APPLETON       FOG       66  63  88 CALM      29.82F VSB 1/4
BENSON         FOG       63  63 100 CALM      29.82F VSB 1/4
ORTONVILLE     CLEAR     64  63  94 CALM      29.83F
MADISON        FOG       64  63  94 CALM      29.83F VSB 1/4
WILLMAR        FOG       66  64  94 CALM      29.85S VSB 3/4
$$
MNZ033>034-036-042>043-049>051-058-059-260900-
   Central Minnesota

CITY           SKY/WX    TMP DP  RH WIND       PRES   REMARKS
ST CLOUD       CLEAR     69  66  90 NW5       29.81R FOG
SAUK CENTRE    FAIR      64  63  98 W5        29.83S FOG
PAYNESVILLE    FOG       61  61 100 SW5       29.83F VSB 3/4
AITKIN         CLEAR     68  63  83 CALM      29.78S
PINE RIVER     CLEAR     63  63 100 CALM      29.84S
BRAINERD       CLEAR     64  62  93 W6        29.80F
STAPLES        CLEAR     59  57  94 CALM      29.81F
LONG PRAIRIE   FAIR      61  61 100 CALM      29.83S
LITTLE FALLS   CLEAR     63  61  94 CALM      29.81S FOG
LITCHFIELD     CLEAR     72  70  94 CALM      29.84S
BUFFALO        MOCLDY    73  68  87 W3        29.82R
MAPLE LAKE     CLOUDY    73  69  90 NW5       29.82S
$$
MNZ037-044-045-052-053-260900-
   East Central Minnesota

CITY           SKY/WX    TMP DP  RH WIND       PRES   REMARKS
PRINCETON      CLEAR     70  68  94 CALM      29.81S
MORA           PTCLDY    68  66  94 CALM      29.81S
CAMBRIDGE      CLEAR     73  64  73 W3        29.78S
RUSH CITY      CLEAR     68  66  94 CALM      29.80S FOG
MOOSE LAKE     FOG       66  64  94 SW3       29.76S VSB 3/4
HINCKLEY       FOG       66  66 100 SW3       29.78F VSB 1/4
CLOQUET        MOCLDY    70  66  88 W6        29.77S
MCGREGOR       CLEAR     68  66  94 CALM      29.78S
$$
MNZ071>073-080-081-089-090-097-098-260900-
   Southwest Minnesota

CITY           SKY/WX    TMP DP  RH WIND       PRES   REMARKS
MONTEVIDEO     FOG       66  64  94 CALM      29.84F VSB 1
GRANITE FALLS  FOG       65  64  97 CALM      29.84F VSB 1/4
CANBY          CLEAR     65  64  96 CALM      29.85F FOG
MARSHALL       CLEAR     66  64  94 CALM      29.83F
REDWOOD FALLS  CLEAR     70  68  93 NW6       29.83F
OLIVIA         CLEAR     70  68  94 N6        29.83F FOG
PIPESTONE      MOCLDY    70  66  88 E5        29.85F
WINDOM         MOCLDY    72  70  94 NW7       29.85F
WORTHINGTON    MOCLDY    72  70  94 N5        29.87F
JACKSON        CLOUDY    72  68  88 CALM      29.86S
TRACY          PTCLDY    69  68  95 N7        29.84F FOG
SLAYTON        MOCLDY    69  68  97 CALM      29.86F
$$
MNZ065>067-074>077-082>085-091>093-260900-
   South Central Minnesota

CITY           SKY/WX    TMP DP  RH WIND       PRES   REMARKS
MANKATO        MOCLDY    72  66  83 SW5       29.82R
NEW ULM        PTCLDY    72  72 100 NW7       29.83R
ST JAMES       MOCLDY    73  70  88 W8        29.85R
FAIRMONT       MOCLDY    70  64  83 W5        29.84R
GLENCOE        CLOUDY    73  69  88 W7        29.82R
FARIBAULT      CLOUDY    73  66  78 S5        29.82S
OWATONNA       PTCLDY    72  68  88 CALM      29.82S FOG
WASECA         PTCLDY    68  64  88 CALM      29.84S FOG
ALBERT LEA     PTCLDY    72  70  94 SE3       29.82F FOG
$$
MNZ078>079-086>088-094>096-260900-
   Southeast Minnesota

CITY           SKY/WX    TMP DP  RH WIND       PRES   REMARKS
ROCHESTER      CLOUDY    69  67  93 S8        29.84F FOG
RED WING       CLOUDY    72  70  94 CALM      29.80S
STANTON        MOCLDY    71  68  89 S3        29.80F
DODGE CENTER   PTCLDY    70  68  94 CALM      29.83S FOG
WINONA         CLOUDY    70  64  83 CALM      29.83S
AUSTIN         CLOUDY    70  70 100 S6        29.82F FOG
PRESTON        CLOUDY    66  66 100 S7        29.85F FOG
$$
ABBREVIATIONS USED IN REMARKS
   TC - TEMPERATURES IN CELSIUS
  WCI - WIND CHILL INDEX
   HX - HEAT INDEX
  VSB - VISIBILITY
$$


USA.gov is the U.S. government's official web portal to all federal, state and local government web resources and services.